DW1980 Weather Reports


Display with metric or nautical units.
time (UTC)temp
F
wind
direction
speed
MPH
gust
MPH
rain 1hr
in
rain 24hr
in
rain mn
in
humidity
%
barometer
mb
20260509191839 57 281 0.0 3.0 0.19 0.29 0.29 95 1011.8
20260509191609 57 281 0.0 3.0 0.19 0.28 0.28 95 1011.8
20260509191537 57 0 0.0 3.0 0.20 0.29 0.29 95 1011.1
20260509191412 58 281 1.0 3.0 0.20 0.29 0.29 95 1012.0
20260509190840 58 271 0.0 2.0 0.22 0.28 0.28 95 1012.0
20260509190411 58 271 0.0 2.0 0.24 0.27 0.27 95 1012.2
20260509190116 57 271 0.0 2.0 0.25 0.27 0.27 94 1012.2
20260509190043 57 271 0.0 2.0 0.25 0.27 0.27 94 1011.6
20260509185837 58 302 0.0 1.0 0.25 0.27 0.27 94 1012.1
20260509185347 58 302 0.0 1.0 0.24 0.26 0.26 94 1012.1
20260509184836 58 302 0.0 1.0 0.23 0.25 0.25 93 1012.2
20260509184604 57 302 0.0 3.0 0.23 0.25 0.25 93 1012.1
20260509184540 57 0 0.0 3.0 0.23 0.25 0.25 92 1011.5
20260509184346 58 302 0.0 3.0 0.22 0.24 0.24 93 1012.2
20260509183855 58 311 1.0 3.0 0.21 0.23 0.23 92 1012.3
20260509183345 58 236 0.0 3.0 0.18 0.20 0.20 91 1012.2
20260509183111 58 236 0.0 3.0 0.16 0.18 0.18 91 1012.3
20260509183054 58 236 1.0 3.0 0.16 0.18 0.18 90 1011.7
20260509182914 59 236 2.0 3.0 0.15 0.17 0.17 90 1012.2
20260509182343 59 226 1.0 3.0 0.12 0.14 0.14 88 1011.9
20260509181853 60 228 2.0 3.0 0.08 0.10 0.10 87 1011.9
20260509181622 60 167 0.0 4.0 0.07 0.09 0.09 87 1011.7
20260509181601 60 0 0.0 4.0 0.07 0.09 0.09 86 1011.0
20260509181344 61 167 1.0 4.0 0.07 0.09 0.09 86 1011.6
20260509180854 62 248 2.0 5.0 0.04 0.06 0.06 82 1011.5
20260509180404 63 167 2.0 5.0 0.00 0.02 0.02 76 1011.4
20260509180107 63 165 2.0 5.0 0.00 0.02 0.02 74 1011.3
20260509180036 63 206 1.0 8.0 0.00 0.02 0.02 74 1010.6
20260509175846 63 197 2.0 8.0 0.00 0.02 0.02 75 1011.1
20260509175354 64 155 2.0 8.0 0.00 0.02 0.02 73 1011.0
20260509174843 64 254 1.0 5.0 0.00 0.02 0.02 71 1010.8
20260509174614 64 233 1.0 5.0 0.00 0.02 0.02 71 1011.0
20260509174543 64 234 2.0 7.0 0.00 0.02 0.02 70 1010.4
20260509174416 65 227 3.0 6.0 0.00 0.02 0.02 71 1011.0
20260509173905 65 287 2.0 6.0 0.00 0.02 0.02 71 1010.9
20260509173354 65 232 2.0 4.0 0.00 0.02 0.02 72 1010.8
20260509173117 64 229 1.0 5.0 0.00 0.02 0.02 71 1010.8
20260509173039 64 233 1.0 5.0 0.00 0.02 0.02 70 1010.2
20260509172838 65 317 1.0 5.0 0.00 0.02 0.02 71 1010.9
20260509172349 65 232 3.0 5.0 0.00 0.02 0.02 70 1011.0
20260509171841 65 162 1.0 9.0 0.00 0.02 0.02 72 1010.9
20260509171610 64 215 1.0 9.0 0.00 0.02 0.02 72 1011.0
20260509171547 64 0 1.0 9.0 0.00 0.02 0.02 70 1010.3
20260509171351 65 267 2.0 9.0 0.00 0.02 0.02 70 1011.0
20260509170902 65 214 2.0 6.0 0.00 0.02 0.02 70 1011.2
20260509170352 65 159 3.0 6.0 0.00 0.02 0.02 70 1011.3
20260509170117 65 217 2.0 6.0 0.00 0.02 0.02 70 1011.3
20260509170038 65 208 2.0 6.0 0.00 0.02 0.02 70 1010.7
20260509165839 65 263 2.0 5.0 0.00 0.02 0.02 69 1011.3
20260509165410 66 229 3.0 7.0 0.00 0.02 0.02 68 1011.4
20260509164838 66 149 3.0 7.0 0.00 0.02 0.02 71 1011.4
20260509164607 65 221 1.0 4.0 0.00 0.02 0.02 71 1011.4
20260509164539 65 169 0.0 7.0 0.00 0.02 0.02 71 1010.8
20260509164350 65 186 1.0 7.0 0.00 0.02 0.02 69 1011.4
20260509163844 65 180 2.0 7.0 0.00 0.02 0.02 72 1011.6
20260509163355 64 240 2.0 6.0 0.00 0.02 0.02 74 1011.7
20260509163116 63 144 2.0 5.0 0.00 0.02 0.02 77 1011.7
20260509163040 63 53 1.0 5.0 0.00 0.02 0.02 76 1011.1
20260509162843 63 313 1.0 2.0 0.00 0.02 0.02 77 1011.9
20260509162412 63 238 1.0 4.0 0.00 0.02 0.02 77 1012.1
20260509161901 63 182 3.0 4.0 0.00 0.02 0.02 77 1012.1
20260509161619 62 234 0.0 2.0 0.00 0.02 0.02 82 1012.2
20260509161539 61 287 0.0 2.0 0.00 0.02 0.02 82 1011.7
20260509161346 62 205 1.0 2.0 0.00 0.02 0.02 82 1012.3
20260509160836 61 217 1.0 3.0 0.00 0.02 0.02 82 1012.5
20260509160347 61 215 1.0 3.0 0.00 0.02 0.02 83 1012.5
20260509160040 60 207 0.0 3.0 0.00 0.02 0.02 81 1012.0
20260509155913 60 155 1.0 2.0 0.00 0.02 0.02 83 1012.5
20260509155339 60 113 1.0 3.0 0.00 0.02 0.02 84 1012.5
20260509154909 59 238 1.0 3.0 0.00 0.02 0.02 84 1012.6
20260509154613 59 207 0.0 2.0 0.00 0.02 0.02 84 1012.6
20260509154538 59 0 0.0 3.0 0.00 0.02 0.02 84 1012.1
20260509154358 59 219 1.0 2.0 0.00 0.02 0.02 86 1012.7
20260509153845 59 219 1.0 2.0 0.00 0.02 0.02 85 1012.5
20260509153354 58 224 0.0 2.0 0.00 0.02 0.02 86 1012.4
20260509153118 58 212 1.0 2.0 0.00 0.02 0.02 86 1012.5
20260509153044 58 212 0.0 2.0 0.00 0.02 0.02 86 1012.0
20260509152841 58 182 1.0 2.0 0.00 0.02 0.02 87 1012.6
20260509152351 58 126 1.0 2.0 0.00 0.02 0.02 88 1012.7
20260509151900 58 156 1.0 2.0 0.00 0.02 0.02 87 1012.8
20260509151605 58 144 0.0 3.0 0.00 0.02 0.02 87 1012.8
20260509151544 58 0 0.0 3.0 0.00 0.02 0.02 86 1012.3
20260509151350 58 129 0.0 3.0 0.00 0.02 0.02 87 1012.8
20260509150839 58 96 1.0 4.0 0.00 0.02 0.02 87 1012.8
20260509150348 58 150 0.0 4.0 0.00 0.02 0.02 87 1012.6
20260509150112 57 88 1.0 4.0 0.00 0.02 0.02 87 1012.6
20260509150043 57 105 1.0 4.0 0.00 0.02 0.02 86 1012.2
20260509145854 58 222 1.0 3.0 0.00 0.02 0.02 87 1012.6
20260509145403 58 206 1.0 3.0 0.00 0.02 0.02 88 1012.8
20260509144851 58 234 0.0 3.0 0.00 0.02 0.02 88 1012.7
20260509144619 58 203 0.0 3.0 0.00 0.02 0.02 87 1012.7
20260509144542 58 213 0.0 4.0 0.00 0.02 0.02 86 1012.1
20260509144340 58 197 0.0 3.0 0.00 0.02 0.02 87 1012.6
20260509143848 58 157 1.0 5.0 0.00 0.02 0.02 88 1012.6
20260509143358 58 225 0.0 5.0 0.00 0.02 0.02 89 1012.7
20260509143121 58 193 2.0 5.0 0.00 0.02 0.02 89 1012.7
20260509143039 58 176 1.0 4.0 0.00 0.02 0.02 88 1012.1
20260509142840 58 219 1.0 4.0 0.00 0.02 0.02 90 1012.6
20260509142350 58 225 1.0 4.0 0.00 0.02 0.02 90 1012.6
20260509141840 58 94 1.0 3.0 0.00 0.02 0.02 91 1012.6
20260509141608 57 211 0.0 2.0 0.00 0.02 0.02 91 1012.7
20260509141539 57 155 0.0 2.0 0.00 0.02 0.02 91 1012.1
20260509141348 57 220 1.0 2.0 0.00 0.02 0.02 91 1012.7
20260509140837 57 153 1.0 2.0 0.00 0.02 0.02 92 1012.6
20260509140348 57 81 1.0 3.0 0.00 0.02 0.02 93 1012.7
20260509140121 56 149 0.0 2.0 0.00 0.02 0.02 93 1012.5
20260509140051 56 0 0.0 3.0 0.00 0.02 0.02 93 1011.9
20260509135855 56 146 0.0 2.0 0.00 0.02 0.02 94 1012.5
20260509135344 56 117 1.0 3.0 0.00 0.02 0.02 94 1012.6
20260509134854 55 176 1.0 3.0 0.00 0.02 0.02 95 1012.7
20260509134624 54 240 1.0 3.0 0.00 0.02 0.02 96 1012.6
20260509134540 54 227 0.0 3.0 0.00 0.02 0.02 95 1012.0
20260509134346 55 340 1.0 2.0 0.01 0.02 0.02 96 1012.5
20260509133836 55 113 1.0 2.0 0.01 0.02 0.02 97 1012.6
20260509133347 54 229 1.0 4.0 0.01 0.02 0.02 97 1012.8
20260509133112 54 169 0.0 4.0 0.01 0.02 0.02 97 1012.9
20260509133038 54 169 0.0 4.0 0.01 0.02 0.02 97 1012.2
20260509132854 54 145 1.0 4.0 0.01 0.02 0.02 97 1013.0
20260509132345 54 130 0.0 3.0 0.01 0.02 0.02 97 1013.2
20260509131838 53 178 1.0 3.0 0.01 0.02 0.02 97 1013.0
20260509131622 53 157 0.0 2.0 0.01 0.02 0.02 97 1012.9
20260509131539 53 0 0.0 2.0 0.01 0.02 0.02 97 1012.1
20260509131348 53 157 1.0 2.0 0.01 0.02 0.02 97 1012.7
20260509130857 53 187 1.0 2.0 0.01 0.02 0.02 97 1012.9
20260509130347 52 162 0.0 1.0 0.01 0.02 0.02 97 1013.1
20260509130107 52 162 0.0 4.0 0.01 0.02 0.02 97 1013.2
20260509130039 52 0 0.0 4.0 0.01 0.02 0.02 97 1012.6
20260509125854 52 162 0.0 4.0 0.01 0.02 0.02 97 1013.2
20260509125343 52 234 3.0 4.0 0.01 0.02 0.02 97 1013.5
20260509124853 52 193 1.0 2.0 0.01 0.02 0.02 97 1013.1
20260509124536 51 30 0.0 2.0 0.01 0.02 0.02 97 1012.3
20260509124502 51 30 0.0 2.0 0.01 0.02 0.02 97 1013.1
20260509124401 52 30 0.0 2.0 0.00 0.01 0.01 97 1013.1
20260509123851 52 59 0.0 2.0 0.00 0.01 0.01 97 1013.1
20260509123340 52 59 1.0 3.0 0.00 0.01 0.01 97 1013.0
20260509123121 51 179 0.0 3.0 0.00 0.01 0.01 97 1013.4
20260509123037 51 179 0.0 4.0 0.00 0.01 0.01 97 1012.8
20260509122846 52 167 1.0 3.0 0.00 0.01 0.01 97 1013.3
20260509122336 52 180 1.0 3.0 0.00 0.01 0.01 97 1013.3
20260509121847 52 162 0.0 1.0 0.00 0.01 0.01 97 1013.1
20260509121615 51 162 0.0 1.0 0.00 0.01 0.01 97 1013.1
20260509121539 51 0 0.0 1.0 0.00 0.01 0.01 97 1012.5
20260509121338 51 162 0.0 1.0 0.00 0.01 0.01 97 1013.3
20260509120849 51 161 0.0 1.0 0.00 0.01 0.01 97 1013.4
20260509120340 51 154 0.0 3.0 0.00 0.01 0.01 97 1013.4
20260509120105 51 154 0.0 3.0 0.00 0.01 0.01 97 1013.4
20260509120044 51 0 1.0 4.0 0.00 0.01 0.01 97 1012.9
20260509115846 51 154 1.0 4.0 0.00 0.01 0.01 97 1013.4
20260509115337 51 207 0.0 3.0 0.00 0.01 0.01 97 1013.5
20260509114845 51 200 2.0 3.0 0.00 0.01 0.01 97 1013.7
20260509114614 50 280 0.0 2.0 0.00 0.01 0.01 97 1013.7
20260509114538 50 0 0.0 2.0 0.00 0.01 0.01 97 1013.0
20260509114417 51 343 0.0 2.0 0.00 0.01 0.01 97 1013.7
20260509113846 51 240 0.0 2.0 0.00 0.01 0.01 97 1013.5
20260509113356 51 240 0.0 2.0 0.00 0.01 0.01 97 1013.7
20260509113121 50 240 0.0 2.0 0.00 0.01 0.01 97 1013.7
20260509113044 50 0 0.0 2.0 0.00 0.01 0.01 97 1013.2
20260509112843 50 304 1.0 2.0 0.00 0.01 0.01 97 1013.6
20260509112353 50 355 0.0 3.0 0.00 0.01 0.01 97 1013.4
20260509111844 50 355 1.0 3.0 0.00 0.01 0.01 97 1013.5
20260509111612 50 247 1.0 3.0 0.00 0.01 0.01 97 1013.8
20260509111548 50 247 1.0 3.0 0.00 0.01 0.01 96 1013.3
20260509111415 50 273 1.0 2.0 0.00 0.01 0.01 97 1013.7
20260509110843 50 299 0.0 1.0 0.00 0.01 0.01 97 1013.3
20260509110354 50 298 0.0 1.0 0.00 0.01 0.01 97 1013.2
20260509110119 49 298 0.0 1.0 0.00 0.01 0.01 97 1013.3
20260509110042 49 0 0.0 1.0 0.00 0.01 0.01 96 1012.8
20260509105841 50 298 0.0 0.0 0.00 0.01 0.01 97 1013.3
20260509105352 50 298 0.0 0.0 0.00 0.01 0.01 97 1013.3
20260509104842 50 298 0.0 0.0 0.00 0.01 0.01 97 1013.3
20260509104613 49 298 0.0 1.0 0.00 0.01 0.01 97 1013.3
20260509104543 49 0 0.0 1.0 0.00 0.01 0.01 96 1012.7
20260509104354 49 298 0.0 1.0 0.00 0.01 0.01 97 1013.3
20260509103844 49 298 0.0 1.0 0.00 0.01 0.01 97 1013.2
20260509103356 49 298 0.0 0.0 0.00 0.01 0.01 97 1013.0
20260509103119 49 298 0.0 0.0 0.00 0.01 0.01 97 1013.0
20260509103039 49 0 0.0 0.0 0.00 0.01 0.01 96 1012.3
20260509102845 49 298 0.0 0.0 0.00 0.01 0.01 97 1013.0
20260509102355 49 298 0.0 1.0 0.00 0.01 0.01 97 1013.0
20260509101846 49 298 0.0 1.0 0.00 0.01 0.01 97 1012.9
20260509101611 49 298 0.0 1.0 0.00 0.01 0.01 97 1012.9
20260509101550 49 0 0.0 1.0 0.00 0.01 0.01 96 1012.2
20260509101337 49 298 0.0 1.0 0.00 0.01 0.01 97 1012.9
20260509100847 49 298 0.0 2.0 0.00 0.01 0.01 97 1012.9
20260509100358 49 298 1.0 2.0 0.00 0.01 0.01 97 1012.8
20260509100120 49 262 0.0 1.0 0.00 0.01 0.01 97 1012.9
20260509100038 49 0 0.0 1.0 0.00 0.01 0.01 96 1012.1
20260509095846 49 262 0.0 1.0 0.00 0.01 0.01 97 1012.9
20260509095336 49 262 0.0 1.0 0.00 0.01 0.01 97 1012.9
20260509094846 49 262 0.0 1.0 0.00 0.01 0.01 97 1013.1
20260509094614 49 262 0.0 1.0 0.00 0.01 0.01 97 1013.2
20260509094544 49 0 0.0 2.0 0.00 0.01 0.01 96 1012.4
20260509094417 49 262 1.0 1.0 0.00 0.01 0.01 96 1013.1
20260509093846 49 262 0.0 2.0 0.00 0.01 0.01 96 1013.2
20260509093356 49 262 0.0 2.0 0.00 0.01 0.01 96 1013.0
20260509093121 49 262 0.0 2.0 0.00 0.01 0.01 96 1013.0
20260509093053 49 0 0.0 2.0 0.00 0.01 0.01 96 1012.2
20260509092843 49 262 0.0 2.0 0.00 0.01 0.01 96 1013.0
20260509092353 49 262 0.0 2.0 0.00 0.01 0.01 96 1013.0
20260509091905 49 262 0.0 1.0 0.00 0.01 0.01 96 1013.1
20260509091613 49 262 0.0 1.0 0.00 0.01 0.01 96 1013.2
20260509091540 49 262 0.0 1.0 0.00 0.01 0.01 96 1012.4
20260509091355 49 262 0.0 1.0 0.00 0.01 0.01 96 1013.1
20260509090845 49 262 0.0 1.0 0.00 0.01 0.01 96 1013.0
20260509090356 49 262 0.0 1.0 0.00 0.01 0.01 96 1013.0
20260509090120 49 262 0.0 0.0 0.00 0.01 0.01 96 1013.1
20260509090039 49 0 0.0 0.0 0.00 0.01 0.01 96 1012.3
20260509085842 49 262 0.0 0.0 0.00 0.02 0.01 96 1013.0
20260509085352 49 262 0.0 1.0 0.00 0.02 0.01 96 1013.1
20260509084843 49 262 0.0 1.0 0.00 0.02 0.01 96 1013.2
20260509084611 49 262 0.0 1.0 0.00 0.02 0.01 96 1013.2
20260509084549 49 0 0.0 1.0 0.00 0.02 0.01 96 1012.4
20260509084414 49 262 0.0 1.0 0.00 0.02 0.01 96 1013.1
20260509083905 49 262 0.0 1.0 0.00 0.02 0.01 96 1013.1
20260509083416 49 262 0.0 0.0 0.00 0.02 0.01 96 1013.1
20260509083119 49 262 0.0 1.0 0.00 0.02 0.01 96 1013.2
20260509083042 49 0 0.0 1.0 0.00 0.02 0.01 96 1012.4
20260509082842 49 262 0.0 1.0 0.00 0.02 0.01 96 1013.1
20260509082351 49 262 0.0 1.0 0.00 0.02 0.01 96 1013.1
20260509081841 49 262 0.0 0.0 0.00 0.02 0.01 96 1013.3
20260509081610 49 262 0.0 0.0 0.00 0.02 0.01 96 1013.4
20260509081543 49 0 0.0 0.0 0.00 0.02 0.01 95 1012.6
20260509081413 49 262 0.0 0.0 0.00 0.02 0.01 96 1013.3
20260509080842 49 262 0.0 1.0 0.00 0.02 0.01 96 1013.3
20260509080414 49 262 0.0 1.0 0.01 0.02 0.01 96 1013.3
20260509080140 48 262 0.0 1.0 0.01 0.02 0.01 96 1013.4
20260509080053 48 0 0.0 1.0 0.01 0.02 0.01 95 1012.6
20260509075840 49 262 0.0 0.0 0.01 0.03 0.01 96 1013.3
20260509075414 49 262 0.0 1.0 0.01 0.03 0.01 96 1013.2
20260509074842 49 262 0.0 0.0 0.01 0.03 0.01 96 1013.2
20260509074611 48 262 0.0 0.0 0.01 0.03 0.01 96 1013.3
20260509074538 48 0 0.0 1.0 0.01 0.03 0.01 95 1012.5
20260509074353 49 262 0.0 1.0 0.01 0.03 0.01 96 1013.2
20260509073844 49 262 0.0 1.0 0.01 0.03 0.01 95 1013.2
20260509073356 49 262 0.0 0.0 0.01 0.03 0.01 95 1013.2
20260509073217 48 262 0.0 0.0 0.01 0.03 0.01 95 1013.2
20260509073045 48 0 0.0 1.0 0.01 0.03 0.01 95 1012.4
20260509072842 49 262 0.0 0.0 0.01 0.03 0.01 95 1013.0
20260509072352 49 262 0.0 1.0 0.01 0.03 0.01 95 1013.0
20260509071844 49 262 0.0 1.0 0.01 0.03 0.01 95 1013.0
20260509071611 48 262 0.0 1.0 0.01 0.03 0.01 95 1013.0
20260509071540 48 0 0.0 1.0 0.01 0.03 0.01 95 1012.4
20260509071353 49 262 0.0 1.0 0.01 0.03 0.01 95 1013.0
20260509070843 49 262 0.0 0.0 0.01 0.03 0.01 95 1013.0
20260509070355 49 262 0.0 0.0 0.00 0.02 0.00 95 1013.2
20260509070120 48 262 0.0 0.0 0.00 0.02 0.00 95 1013.3
20260509070044 48 0 0.0 0.0 0.00 0.02 0.00 94 1012.6
20260509065846 48 262 0.0 0.0 0.00 0.05 0.00 95 1013.3
20260509065356 48 262 0.0 0.0 0.00 0.05 0.00 95 1013.2
20260509064845 48 262 0.0 0.0 0.00 0.05 0.00 95 1013.2
20260509064609 48 262 0.0 0.0 0.00 0.05 0.00 95 1013.2
20260509064541 48 0 0.0 0.0 0.00 0.05 0.00 94 1012.5
20260509064356 48 262 0.0 0.0 0.00 0.05 0.00 95 1013.1
20260509063906 48 262 0.0 0.0 0.00 0.05 0.00 94 1013.2
20260509063356 48 262 0.0 1.0 0.00 0.05 0.00 94 1013.1
20260509063038 48 0 0.0 1.0 0.00 0.05 0.00 94 1012.6
20260509063002 48 262 0.0 1.0 0.00 0.05 0.00 94 1013.3
20260509062902 48 262 0.0 1.0 0.00 0.05 0.00 94 1013.3
20260509062350 48 262 0.0 1.0 0.00 0.05 0.00 94 1013.3
20260509061841 48 262 0.0 1.0 0.00 0.05 0.00 94 1013.3
20260509061605 48 262 0.0 1.0 0.00 0.05 0.00 94 1013.5
20260509061536 48 262 0.0 1.0 0.00 0.05 0.00 93 1012.8
20260509061352 48 262 0.0 1.0 0.00 0.05 0.00 94 1013.4
20260509060841 48 262 0.0 1.0 0.00 0.05 0.00 93 1013.4
20260509060412 48 262 0.0 1.0 0.00 0.05 0.00 93 1013.8
20260509060111 47 262 0.0 1.0 0.00 0.05 0.00 93 1013.9
20260509060036 47 0 0.0 2.0 0.00 0.05 0.00 93 1013.2
20260509055838 48 262 0.0 1.0 0.00 0.05 0.00 93 1013.8
20260509055349 48 262 0.0 2.0 0.00 0.05 0.00 93 1013.8
20260509054839 48 262 2.0 2.0 0.00 0.05 0.00 93 1013.8
20260509054607 47 274 0.0 2.0 0.00 0.05 0.00 93 1013.7
20260509054547 47 330 0.0 1.0 0.00 0.05 0.00 92 1013.1
20260509054411 48 330 0.0 0.0 0.00 0.05 0.00 92 1013.5
20260509053840 48 330 0.0 0.0 0.00 0.05 0.00 92 1013.5
20260509053351 48 330 0.0 0.0 0.00 0.05 0.00 92 1013.7
20260509053117 47 330 0.0 0.0 0.00 0.05 0.00 92 1013.8
20260509053041 47 0 0.0 1.0 0.00 0.05 0.00 92 1013.3
20260509052838 48 330 0.0 1.0 0.00 0.05 0.00 92 1013.8
20260509052348 47 330 0.0 1.0 0.00 0.05 0.00 92 1013.9
20260509051836 47 330 0.0 1.0 0.00 0.05 0.00 92 1013.8
20260509051606 47 330 0.0 2.0 0.00 0.05 0.00 92 1013.9
20260509051548 47 0 0.0 2.0 0.00 0.05 0.00 91 1013.2
20260509051408 47 331 0.0 2.0 0.00 0.05 0.00 92 1013.8
20260509050837 47 335 1.0 2.0 0.00 0.05 0.00 91 1013.7
20260509050349 47 351 0.0 1.0 0.00 0.05 0.00 91 1013.7
20260509050113 47 351 0.0 1.0 0.00 0.05 0.00 91 1013.6
20260509050043 47 0 0.0 1.0 0.00 0.05 0.00 91 1013.1
20260509045916 47 351 0.0 1.0 0.00 0.05 0.00 91 1013.6
20260509045345 47 351 0.0 1.0 0.00 0.05 0.00 91 1013.7
20260509044854 48 351 0.0 0.0 0.00 0.05 0.00 90 1013.7
20260509044536 47 0 0.0 0.0 0.00 0.05 0.00 90 1013.0
20260509044504 47 351 0.0 0.0 0.00 0.05 0.00 90 1013.6
20260509044404 48 351 0.0 0.0 0.00 0.05 0.00 90 1013.6
20260509043853 48 351 0.0 1.0 0.00 0.05 0.00 90 1013.7
20260509043343 48 351 0.0 1.0 0.00 0.05 0.00 90 1013.7
20260509043108 48 351 0.0 1.0 0.00 0.05 0.00 90 1013.8
20260509043045 48 0 0.0 1.0 0.00 0.05 0.00 89 1013.3
20260509042850 48 351 0.0 1.0 0.00 0.05 0.00 90 1013.8
20260509042339 48 351 0.0 1.0 0.00 0.05 0.00 89 1013.8
20260509041911 49 351 0.0 1.0 0.00 0.05 0.00 89 1013.7
20260509041618 48 351 0.0 1.0 0.00 0.05 0.00 89 1013.8
20260509041541 48 0 0.0 0.0 0.00 0.05 0.00 88 1013.2
20260509041340 49 351 0.0 0.0 0.00 0.05 0.00 89 1013.8
20260509040850 49 351 0.0 0.0 0.00 0.05 0.00 89 1013.8
20260509040342 49 351 0.0 0.0 0.00 0.05 0.00 88 1013.7
20260509040112 49 351 0.0 0.0 0.00 0.05 0.00 88 1013.9
20260509040042 49 0 0.0 0.0 0.00 0.05 0.00 88 1013.3
20260509035911 50 351 0.0 0.0 0.00 0.05 0.05 88 1013.9
20260509035339 50 351 0.0 0.0 0.00 0.05 0.05 88 1013.8
20260509034850 50 351 0.0 0.0 0.00 0.05 0.05 88 1013.9
20260509034617 50 351 0.0 0.0 0.00 0.05 0.05 88 1014.0
20260509034543 50 0 0.0 0.0 0.00 0.05 0.05 88 1013.3
20260509034340 50 351 0.0 0.0 0.00 0.05 0.05 88 1013.9
20260509033910 50 351 0.0 1.0 0.00 0.05 0.05 88 1013.9
20260509033340 50 351 0.0 0.0 0.00 0.05 0.05 88 1014.0
20260509033106 50 351 0.0 0.0 0.00 0.05 0.05 87 1014.1
20260509033036 50 0 0.0 0.0 0.00 0.05 0.05 87 1013.3
20260509032847 50 351 0.0 0.0 0.00 0.05 0.05 87 1013.9
20260509032336 50 351 0.0 0.0 0.00 0.05 0.05 87 1013.9
20260509031848 50 351 0.0 0.0 0.00 0.05 0.05 87 1013.9
20260509031616 50 351 0.0 0.0 0.00 0.05 0.05 87 1013.9
20260509031545 50 0 0.0 1.0 0.00 0.05 0.05 87 1013.2
20260509031339 50 351 0.0 1.0 0.00 0.05 0.05 87 1013.9
20260509030849 50 351 0.0 1.0 0.00 0.05 0.05 87 1013.9
20260509030344 50 351 0.0 0.0 0.00 0.05 0.05 87 1013.9
20260509030103 50 351 0.0 0.0 0.00 0.05 0.05 86 1014.0
20260509030040 50 0 0.0 0.0 0.00 0.05 0.05 86 1013.3
20260509025851 50 351 0.0 0.0 0.00 0.05 0.05 86 1013.9
20260509025341 50 351 0.0 0.0 0.00 0.05 0.05 86 1013.9
20260509024849 50 351 0.0 0.0 0.00 0.05 0.05 86 1013.8
20260509024615 50 351 0.0 0.0 0.00 0.05 0.05 86 1013.9
20260509024539 50 0 0.0 0.0 0.00 0.05 0.05 85 1013.1
20260509024341 50 351 0.0 0.0 0.00 0.05 0.05 86 1013.7
20260509023851 50 351 0.0 0.0 0.00 0.05 0.05 85 1013.7
20260509023358 50 351 327.0 327.0 0.00 0.00 0.05 85 1013.6
20260509023112 50 351 0.0 0.0 0.00 0.05 0.05 85 1013.7
20260509023041 50 0 0.0 0.0 0.00 0.05 0.05 85 1013.0
20260509022839 50 351 0.0 0.0 0.00 0.05 0.05 85 1013.6
20260509022409 50 351 0.0 0.0 0.00 0.05 0.05 85 1013.7
20260509021837 50 351 0.0 0.0 0.00 0.05 0.05 85 1013.5
20260509021601 50 351 0.0 0.0 0.00 0.05 0.05 84 1013.6
20260509021538 50 0 0.0 0.0 0.00 0.05 0.05 84 1013.0
20260509021348 50 351 0.0 0.0 0.00 0.05 0.05 84 1013.5
20260509020837 50 351 0.0 0.0 0.00 0.05 0.05 84 1013.4
20260509020348 50 351 0.0 0.0 0.00 0.05 0.05 84 1013.3
20260509020112 50 351 0.0 0.0 0.00 0.05 0.05 83 1013.4
20260509020045 50 0 0.0 0.0 0.00 0.05 0.05 83 1012.6
20260509015854 50 351 0.0 0.0 0.00 0.05 0.05 83 1013.2
20260509015345 50 351 0.0 0.0 0.00 0.05 0.05 83 1013.2
20260509014835 50 351 0.0 0.0 0.00 0.05 0.05 83 1013.2
20260509014603 50 351 0.0 0.0 0.00 0.05 0.05 83 1013.2
20260509014545 50 0 0.0 0.0 0.00 0.05 0.05 82 1012.4
20260509014344 50 351 0.0 0.0 0.00 0.05 0.05 83 1013.1
20260509013835 50 351 0.0 1.0 0.00 0.05 0.05 82 1013.0
20260509013346 50 351 0.0 2.0 0.00 0.05 0.05 82 1013.0
20260509013110 50 351 0.0 2.0 0.00 0.05 0.05 83 1013.1
20260509013048 50 351 0.0 2.0 0.00 0.05 0.05 82 1012.3
20260509012852 50 351 1.0 2.0 0.00 0.05 0.05 83 1012.9
20260509012341 50 351 1.0 2.0 0.00 0.05 0.05 82 1012.9
20260509011852 50 257 0.0 1.0 0.00 0.05 0.05 82 1012.9
20260509011620 50 257 0.0 2.0 0.00 0.05 0.05 82 1013.0
20260509011542 50 0 0.0 2.0 0.00 0.05 0.05 81 1012.1
20260509011342 50 257 0.0 2.0 0.00 0.05 0.05 81 1012.9
20260509010853 51 257 1.0 2.0 0.00 0.05 0.05 81 1012.8
20260509010344 51 257 0.0 1.0 0.00 0.05 0.05 80 1012.8
20260509010110 50 257 0.0 1.0 0.00 0.05 0.05 80 1012.9
20260509010038 50 0 0.0 1.0 0.00 0.05 0.05 79 1012.1
20260509005850 51 257 0.0 1.0 0.00 0.05 0.05 80 1012.8
20260509005341 51 257 0.0 0.0 0.00 0.05 0.05 79 1012.8
20260509004852 51 257 0.0 0.0 0.00 0.05 0.05 79 1012.7
20260509004538 51 0 0.0 0.0 0.00 0.05 0.05 78 1011.9
20260509004509 51 257 0.0 0.0 0.00 0.05 0.05 78 1012.6
20260509004402 51 257 0.0 0.0 0.00 0.05 0.05 78 1012.6
20260509003853 52 257 0.0 0.0 0.00 0.05 0.05 78 1012.4
20260509003404 52 257 0.0 0.0 0.00 0.05 0.05 77 1012.4
20260509003109 52 257 0.0 0.0 0.00 0.05 0.05 77 1012.5
20260509003045 52 0 0.0 0.0 0.00 0.05 0.05 76 1011.7
20260509002911 52 257 0.0 0.0 0.00 0.05 0.05 76 1012.3
20260509002340 53 257 0.0 1.0 0.00 0.05 0.05 75 1012.3
20260509001850 53 257 0.0 1.0 0.00 0.05 0.05 74 1012.2
20260509001618 53 257 0.0 1.0 0.00 0.05 0.05 74 1012.3
20260509001543 53 0 0.0 1.0 0.00 0.05 0.05 73 1011.5
20260509001338 54 257 0.0 1.0 0.00 0.05 0.05 73 1012.3
20260509000849 54 257 0.0 1.0 0.00 0.05 0.05 72 1012.3
20260509000344 55 257 0.0 1.0 0.00 0.05 0.05 71 1012.3
20260509000106 54 257 0.0 1.0 0.00 0.05 0.05 70 1012.4
20260509000039 55 0 0.0 1.0 0.00 0.05 0.05 70 1011.6
20260508235850 55 257 0.0 1.0 0.00 0.05 0.05 70 1012.3
20260508235340 56 257 0.0 1.0 0.00 0.05 0.05 69 1012.2
20260508234851 56 257 0.0 1.0 0.00 0.05 0.05 68 1012.1
20260508234615 56 257 0.0 1.0 0.00 0.05 0.05 68 1012.1
20260508234540 56 0 0.0 1.0 0.00 0.05 0.05 67 1011.4
20260508234340 56 257 0.0 1.0 0.00 0.05 0.05 68 1012.0
20260508233852 57 257 0.0 1.0 0.00 0.05 0.05 68 1011.9
20260508233344 57 257 0.0 1.0 0.00 0.05 0.05 66 1012.0
20260508233143 56 257 0.0 1.0 0.00 0.05 0.05 66 1012.1
20260508233048 56 0 0.0 3.0 0.00 0.05 0.05 65 1011.4
20260508232851 57 259 0.0 1.0 0.00 0.05 0.05 66 1012.0
20260508232401 57 231 1.0 3.0 0.00 0.05 0.05 64 1012.0
20260508231850 57 222 2.0 3.0 0.00 0.05 0.05 65 1012.1
20260508231615 57 248 1.0 2.0 0.00 0.05 0.05 66 1012.1
20260508231543 57 244 0.0 2.0 0.00 0.05 0.05 64 1011.4
20260508231340 57 286 0.0 2.0 0.00 0.05 0.05 66 1012.0
20260508230852 57 286 1.0 2.0 0.00 0.05 0.05 65 1011.9
20260508230343 57 221 1.0 2.0 0.00 0.05 0.05 64 1011.8
20260508230107 57 268 0.0 4.0 0.00 0.05 0.05 65 1011.9
20260508230047 57 0 0.0 4.0 0.00 0.05 0.05 64 1011.1
20260508225849 57 272 1.0 4.0 0.00 0.05 0.05 65 1011.7
20260508225340 58 284 2.0 5.0 0.00 0.05 0.05 63 1011.6
20260508224851 58 304 1.0 5.0 0.00 0.05 0.05 62 1011.6
20260508224617 57 296 1.0 4.0 0.00 0.05 0.05 62 1011.7
20260508224543 57 306 1.0 8.0 0.00 0.05 0.05 62 1011.0
20260508224340 58 330 3.0 8.0 0.00 0.05 0.05 63 1011.6
20260508223913 58 284 2.0 8.0 0.00 0.05 0.05 64 1011.7
20260508223344 58 334 2.0 7.0 0.00 0.05 0.05 63 1011.7
20260508223107 58 217 1.0 7.0 0.00 0.05 0.05 63 1011.7
20260508223040 58 211 1.0 7.0 0.00 0.05 0.05 62 1011.1
20260508222851 58 294 2.0 7.0 0.00 0.05 0.05 64 1011.6
20260508222342 58 236 1.0 9.0 0.00 0.05 0.05 62 1011.6
20260508221852 58 252 4.0 9.0 0.00 0.05 0.05 62 1011.6
20260508221539 58 253 1.0 6.0 0.00 0.05 0.05 63 1011.0
20260508221503 58 238 1.0 5.0 0.00 0.05 0.05 64 1011.7
20260508221402 58 213 1.0 8.0 0.00 0.05 0.05 63 1011.6
20260508220850 58 313 2.0 9.0 0.00 0.05 0.05 63 1011.5
20260508220342 58 275 4.0 8.0 0.00 0.05 0.05 62 1011.6
20260508220109 58 320 2.0 5.0 0.00 0.05 0.05 62 1011.7
20260508220041 58 263 2.0 6.0 0.00 0.05 0.05 62 1011.0
20260508215849 59 227 3.0 6.0 0.00 0.05 0.05 62 1011.5
20260508215339 59 267 2.0 8.0 0.00 0.05 0.05 62 1011.5
20260508214850 59 296 3.0 8.0 0.00 0.05 0.05 62 1011.6
20260508214621 58 197 3.0 11.0 0.00 0.05 0.05 63 1011.7
20260508214539 58 315 2.0 11.0 0.00 0.05 0.05 63 1010.9
20260508214340 58 279 3.0 11.0 0.00 0.05 0.05 63 1011.7
20260508213850 58 274 4.0 11.0 0.00 0.05 0.05 65 1011.7
20260508213341 58 213 2.0 5.0 0.00 0.05 0.05 64 1011.9
20260508213104 57 226 2.0 5.0 0.00 0.05 0.05 64 1012.0
20260508213041 57 229 1.0 5.0 0.00 0.05 0.05 63 1011.2
20260508212848 58 324 2.0 5.0 0.00 0.05 0.05 64 1012.0
20260508212341 57 245 1.0 4.0 0.00 0.05 0.05 65 1012.0
20260508211906 57 295 0.0 4.0 0.00 0.05 0.05 64 1012.0
20260508211613 57 292 1.0 4.0 0.00 0.05 0.05 64 1012.1
20260508211540 57 239 1.0 4.0 0.00 0.05 0.05 63 1011.4
20260508211339 57 175 2.0 4.0 0.00 0.05 0.05 65 1012.0
20260508210847 57 248 2.0 7.0 0.00 0.05 0.05 64 1012.1
20260508210414 58 252 3.0 7.0 0.00 0.05 0.05 64 1012.1
20260508210133 57 273 2.0 7.0 0.00 0.05 0.05 63 1012.1
20260508210040 57 322 2.0 7.0 0.00 0.05 0.05 63 1011.4
20260508205843 58 230 3.0 7.0 0.00 0.05 0.05 63 1012.1
20260508205352 58 277 3.0 7.0 0.00 0.05 0.05 62 1012.0
20260508204901 58 194 2.0 5.0 0.00 0.05 0.05 62 1012.0
20260508204602 58 280 2.0 9.0 0.00 0.05 0.05 63 1012.1
20260508204547 58 0 2.0 9.0 0.00 0.05 0.05 62 1011.3
20260508204348 58 244 2.0 9.0 0.00 0.05 0.05 61 1012.0
20260508203839 58 280 4.0 9.0 0.00 0.05 0.05 60 1011.8
20260508203349 59 232 5.0 13.0 0.00 0.05 0.05 60 1011.8
20260508203109 58 290 4.0 16.0 0.00 0.05 0.05 60 1011.9
20260508203048 58 260 3.0 16.0 0.00 0.05 0.05 59 1011.1
20260508202853 58 261 4.0 16.0 0.00 0.05 0.05 57 1011.7
20260508202341 58 41 6.0 16.0 0.00 0.05 0.05 60 1011.7
20260508201850 58 271 5.0 15.0 0.00 0.05 0.05 61 1011.8
20260508201615 57 248 8.0 18.0 0.00 0.05 0.05 60 1011.9
20260508201535 57 334 8.0 18.0 0.00 0.05 0.05 60 1011.1
20260508201339 58 279 5.0 18.0 0.00 0.05 0.05 63 1011.8
20260508200907 58 26 6.0 18.0 0.00 0.05 0.05 63 1011.8
20260508200357 57 287 4.0 11.0 0.00 0.05 0.05 66 1011.8
20260508200050 57 297 4.0 11.0 0.00 0.05 0.05 67 1011.2
20260508200002 57 289 5.0 11.0 0.00 0.05 0.05 68 1011.9
20260508195901 57 265 2.0 11.0 0.00 0.05 0.05 69 1011.8
20260508195349 57 265 4.0 11.0 0.00 0.05 0.05 69 1011.8
20260508194839 56 22 5.0 15.0 0.00 0.05 0.05 71 1012.0
20260508194621 55 267 5.0 15.0 0.00 0.05 0.05 69 1012.1
20260508194542 55 300 4.0 15.0 0.00 0.05 0.05 69 1011.4
20260508194347 55 327 3.0 9.0 0.00 0.05 0.05 71 1012.2
20260508193855 55 355 4.0 8.0 0.00 0.05 0.05 72 1012.3
20260508193345 54 296 2.0 10.0 0.00 0.05 0.05 73 1012.4
20260508193111 54 296 1.0 10.0 0.00 0.05 0.05 73 1012.5
20260508193042 54 292 4.0 10.0 0.00 0.05 0.05 72 1011.7
20260508192852 54 290 5.0 10.0 0.00 0.05 0.05 74 1012.5
20260508192341 54 294 2.0 11.0 0.00 0.05 0.05 71 1012.4